This is the latest recevied weather packets stored in our database for station/object KJ4RDP-13. If no packets are shown the sender has not sent any weather packets the latest 1 day(s).
| Time | Temp. | Humidity | Pressure | Rain* | Wind** | Luminosity | Snow |
|---|---|---|---|---|---|---|---|
| 1778025552 | 19.44° C | 56% | 1014.2 hPa | 0 mm | 1.79 m/s, 74° | 13 W/m² | - |
| 1778025250 | 19.44° C | 55% | 1013.8 hPa | 0 mm | 0.45 m/s, 242° | 13 W/m² | - |
| 1778024946 | 20° C | 54% | 1013.8 hPa | 0 mm | 0 m/s | 17 W/m² | - |
| 1778024644 | 20° C | 55% | 1013.8 hPa | 0 mm | 1.34 m/s, 263° | 21 W/m² | - |
| 1778024340 | 20° C | 54% | 1013.8 hPa | 0 mm | 1.34 m/s, 258° | 29 W/m² | - |
| 1778024038 | 20.56° C | 53% | 1013.8 hPa | 0 mm | 0.89 m/s, 240° | 32 W/m² | - |
| 1778023735 | 20.56° C | 52% | 1014.2 hPa | 0 mm | 2.24 m/s, 242° | 39 W/m² | - |
| 1778023433 | 21.11° C | 51% | 1014.2 hPa | 0 mm | 0 m/s | 52 W/m² | - |
| 1778023130 | 21.11° C | 51% | 1013.8 hPa | 0 mm | 1.34 m/s, 222° | 73 W/m² | - |
| 1778022827 | 21.11° C | 50% | 1013.8 hPa | 0 mm | 1.34 m/s, 260° | 87 W/m² | - |
| 1778022525 | 21.67° C | 49% | 1013.8 hPa | 0 mm | 0 m/s | 101 W/m² | - |
| 1778022222 | 21.67° C | 51% | 1014.2 hPa | 0 mm | 1.34 m/s, 225° | 121 W/m² | - |
| 1778021919 | 21.67° C | 50% | 1013.8 hPa | 0 mm | 0.89 m/s, 277° | 131 W/m² | - |
| 1778021616 | 21.11° C | 51% | 1013.8 hPa | 0 mm | 0.45 m/s, 315° | 147 W/m² | - |
| 1778021311 | 20.56° C | 52% | 1013.8 hPa | 0 mm | 3.13 m/s, 218° | 164 W/m² | - |
| 1778021009 | 20.56° C | 52% | 1013.8 hPa | 0 mm | 4.02 m/s, 183° | 195 W/m² | - |
| 1778020706 | 20.56° C | 53% | 1013.8 hPa | 0 mm | 2.24 m/s, 258° | 91 W/m² | - |
| 1778020403 | 20.56° C | 52% | 1013.8 hPa | 0 mm | 2.24 m/s, 210° | 52 W/m² | - |
| 1778020099 | 21.11° C | 54% | 1013.8 hPa | 0 mm | 1.34 m/s, 212° | 85 W/m² | - |
| 1778019795 | 21.67° C | 51% | 1013.8 hPa | 0 mm | 1.79 m/s, 187° | 262 W/m² | - |
| 1778019492 | 21.67° C | 50% | 1013.8 hPa | 0 mm | 4.02 m/s, 240° | 280 W/m² | - |
| 1778019189 | 21.67° C | 49% | 1014.2 hPa | 0 mm | 1.79 m/s, 289° | 308 W/m² | - |
| 1778018886 | 21.11° C | 52% | 1013.8 hPa | 0 mm | 1.79 m/s, 214° | 302 W/m² | - |
| 1778018583 | 21.11° C | 51% | 1014.2 hPa | 0 mm | 4.02 m/s, 193° | 315 W/m² | - |
| 1778018281 | 21.67° C | 51% | 1013.8 hPa | 0 mm | 1.79 m/s, 303° | 102 W/m² | - |
* Rain latest hour (hover to see other rain measurements)
** Current wind speed in m/s (hover to see current wind gust speed)